Flag for Netherlands Weather past 2 weeks in Dordrecht, Netherlands

Now
73 °F

Clear.


Feels Like: 75 °F
Forecast: 57 / 71 °F
Wind: 14 mph from North

Location: Rotterdam Zestienhoven Airport

Current Time: Jul 29, 2014 at 5:29:37 PM

Latest Report: Jul 29, 2014 at 4:55 PM


Visibility: N/A

Pressure: 29.86 "Hg

Humidity: 74%

Dew point: 64 °F

Location of DordrechtLocation

Historic Weather in Dordrecht — Graph

°F

Dordrecht temperature yesterday

Maximum temperature yesterday: 75 °F (at 6:25 PM)
Minimum temperature yesterday: 61 °F (at 8:55 AM)
Average temperature yesterday: 67 °F

Past Weeks' High & Low Weather Summary

 TemperatureHumidityPressure
High95 °F (Jul 19, 3:25 PM)100% (Jul 16, 1:55 AM)30.18 "Hg (Jul 16, 1:55 AM)
Low55 °F (Jul 16, 2:55 AM)26% (Jul 19, 3:25 PM)29.74 "Hg (Jul 19, 11:25 PM)
Average70 °F76%29.98 "Hg
* Reported Jul 14 4:25 PM — Jul 29 4:25 PM, Dordrecht, Weather by CustomWeather, © 2014

Note: Actual official high and low records may vary slightly from our data, if they occured in-between our weather recording intervals... More about our weather records

Advertising

Dordrecht weather history for previous 24 hours

 ConditionsComfort  
Time TempWeatherWind HumidityBarometerVisibility
4:25 PM
Jul 29
73 °FPassing clouds.15 mph78%29.86 "HgN/A
3:55 PM73 °FPassing clouds.15 mph78%29.86 "HgN/A
3:25 PM73 °FClear.14 mph78%29.89 "HgN/A
2:55 PM73 °FClear.13 mph78%29.89 "HgN/A
2:25 PM73 °FClear.12 mph78%29.89 "HgN/A
1:55 PM73 °FPassing clouds.13 mph78%29.89 "HgN/A
1:25 PM73 °FBroken clouds.8 mph78%29.89 "HgN/A
12:55 PM73 °FPassing clouds.12 mph78%29.89 "HgN/A
12:25 PM73 °FPassing clouds.10 mph74%29.89 "HgN/A
11:55 AM73 °FPassing clouds.9 mph74%29.89 "HgN/A
11:25 AM73 °FScattered clouds.8 mph78%29.89 "HgN/A
10:55 AM75 °FPassing clouds.9 mph74%29.89 "HgN/A
10:25 AM72 °FScattered clouds.10 mph83%29.89 "HgN/A
9:55 AM70 °FCloudy.9 mph88%29.89 "HgN/A
9:25 AM70 °FMostly cloudy.9 mph88%29.89 "HgN/A
8:55 AM70 °FPartly sunny.9 mph88%29.89 "HgN/A
8:25 AM68 °FMostly cloudy.8 mph94%29.89 "HgN/A
7:55 AM68 °FMostly cloudy.9 mph88%29.89 "HgN/A
7:25 AM68 °FBroken clouds.10 mph88%29.86 "HgN/A
6:55 AM68 °FMostly cloudy.9 mph94%29.89 "Hg5 mi
6:25 AM66 °FFog.7 mph94%29.89 "Hg3 mi
5:55 AM66 °FFog.6 mph94%29.89 "Hg3 mi
5:25 AM66 °FFog.3 mph94%29.89 "Hg3 mi
4:55 AM66 °FMostly cloudy.5 mph94%29.89 "Hg4 mi
4:25 AM66 °FOvercast.6 mph94%29.89 "Hg4 mi
3:55 AM66 °FFog.5 mph94%29.89 "Hg3 mi
3:25 AM66 °FPassing clouds.5 mph94%29.89 "Hg4 mi
2:55 AM64 °FOvercast.2 mph100%29.89 "Hg4 mi
2:25 AM66 °FClear.1 mph94%29.89 "HgN/A
1:55 AM66 °FClear.3 mph94%29.89 "HgN/A
1:25 AM66 °FMild.3 mph88%29.89 "Hg6 mi
12:55 AM64 °FFog.3 mph94%29.89 "Hg3 mi
12:25 AM64 °FPassing clouds.6 mph94%29.89 "Hg4 mi
11:55 PM
Jul 28
66 °FMild.9 mph88%29.89 "HgN/A
11:25 PM68 °FMild.10 mph88%29.89 "HgN/A
10:55 PM68 °FMild.8 mph88%29.89 "HgN/A
10:25 PM70 °FBroken clouds.8 mph88%29.89 "HgN/A
9:55 PM72 °FPartly sunny.9 mph83%29.89 "HgN/A
9:25 PM72 °FMore clouds than sun.8 mph83%29.86 "HgN/A
8:55 PM72 °FPartly sunny.7 mph78%29.86 "HgN/A
8:25 PM73 °FPartly sunny.7 mph74%29.86 "HgN/A
7:55 PM73 °FPassing clouds.6 mph74%29.86 "HgN/A
7:25 PM73 °FPassing clouds.12 mph74%29.83 "HgN/A
6:55 PM73 °FMild.14 mph74%29.83 "HgN/A
6:25 PM75 °FClear.14 mph69%29.83 "HgN/A
5:55 PM73 °FPassing clouds.14 mph74%29.83 "HgN/A
5:25 PM73 °FPassing clouds.14 mph78%29.83 "HgN/A
Weather by CustomWeather, © 2014

See weather overviewHow to use our weather pages